Regional Weather Roundup
Issued by NWS

Home | Current Version | Previous Version | Graphics & Text | Print | Product List | Glossary On
Versions: 1 2 3 4 5 6 7 8 9 10 11 12 13 14 15 16 17 18 19 20 21 22 23 24 25 26 27 28 29 30 31 32 33 34 35 36 37 38 39 40 41 42 43 44 45 46 47 48 49 50
000
ASUS43 KLMK 280610
RWRKY
KENTUCKY REGIONAL WEATHER ROUNDUP
NATIONAL WEATHER SERVICE LOUISVILLE KY
100 AM EST SUN DEC 28 2014

NOTE "FAIR" INDICATES FEW OR NO CLOUDS BELOW 12,000 FEET
WITH NO SIGNIFICANT WEATHER AND/OR OBSTRUCTIONS TO VISIBILITY.

KYZ001>023-026-027-061>063-070>075-280700-
WESTERN AND SOUTH CENTRAL KENTUCKY

CITY           SKY/WX    TMP DP  RH WIND       PRES   REMARKS
PADUCAH        CLOUDY    40  38  93 N15       30.14S FOG     WCI  32
HENDERSON      CLOUDY    39  36  87 NW12      30.13S WCI  32
OWENSBORO      CLOUDY    41  40  96 NW14      30.11S
HOPKINSVILLE   CLOUDY    45  45 100 SE9       30.07F
BOWLING GREEN  CLOUDY    49  47  93 W5        30.10S FOG
GLASGOW        DRIZZLE   47  47 100 CALM      30.08F
$$

KYZ024-025-028>034-038-045-046-053-280700-
NORTH CENTRAL KENTUCKY

CITY           SKY/WX    TMP DP  RH WIND       PRES   REMARKS
LOUISVILLE/SDF LGT RAIN  48  47  96 SE5       30.03F FOG
LOUISVILLE/LOU HVY RAIN  48  47  96 CALM      30.04F FOG
FORT KNOX      RAIN      46  46 100 SW3       30.04F FOG
$$

KYZ035>037-039>044-047>052-055>060-089>105-280700-
NORTHEAST KENTUCKY

CITY           SKY/WX    TMP DP  RH WIND       PRES   REMARKS
LEXINGTON      CLOUDY    47  46  97 SW10      30.07S FOG
COVINGTON      LGT RAIN  47  43  86 W5        30.04F
FRANKFORT      CLOUDY    47  45  93 W7        30.07R FOG
$$

KYZ054-064>069-076>088-106>120-280700-
SOUTHEAST KENTUCKY

CITY           SKY/WX    TMP DP  RH WIND       PRES   REMARKS
JACKSON        CLOUDY    49  39  68 W13G23    30.07F
LONDON         LGT RAIN  47  42  83 CALM      30.08F
SOMERSET       DRIZZLE   45  45 100 CALM      30.11S
MIDDLESBORO    DRIZZLE   46  44  93 E6        30.09F
MONTICELLO     FOG       48  47  97 CALM      30.10F VSB 1
$$



USA.gov is the U.S. government's official web portal to all federal, state and local government web resources and services.